Location: Berlin
(52.5200°N, 13.4050°E)
Time: 18:44:58
(UTC+02:00)

ISS - Visible Passes

Search period start: 23 May 2019 00:00
Search period end: 02 June 2019 00:00
Orbit: 408 x 418 km, 51.6° (Epoch: 23 May)

Date Brightness Start Highest point End Pass type
(mag) Time Alt. Az. Time Alt. Az. Time Alt. Az.
23 May -3.9 00:18:41 10° W 00:22:02 69° S 00:23:42 27° ESE visible
23 May -1.7 01:55:30 10° W 01:56:29 16° WSW 01:56:29 16° WSW visible
23 May -3.7 21:52:43 10° WSW 21:56:00 58° SSE 21:59:19 10° E visible
23 May -3.9 23:29:15 10° W 23:32:37 76° S 23:35:34 13° E visible
24 May -2.9 01:05:57 10° W 01:08:22 32° SW 01:08:22 32° SW visible
24 May -3.8 22:39:48 10° W 22:43:09 78° S 22:46:32 10° E visible
25 May -3.6 00:16:28 10° W 00:19:43 49° SSW 00:20:20 42° SSE visible
25 May -3.8 23:26:59 10° W 23:30:18 61° SSW 23:32:21 21° ESE visible
26 May -1.8 01:03:56 10° W 01:05:09 17° WSW 01:05:09 17° WSW visible
26 May -3.8 22:37:31 10° W 22:40:51 71° S 22:44:12 10° ESE visible
27 May -2.8 00:14:17 10° W 00:17:12 30° SSW 00:17:12 30° SSW visible
27 May -3.2 23:24:42 10° W 23:27:53 40° SSW 23:29:17 26° SSE visible
28 May -3.5 22:35:11 10° W 22:38:28 52° SSW 22:41:22 12° ESE visible
29 May -1.8 00:12:23 10° W 00:14:11 17° SW 00:14:11 17° SW visible
29 May -2.4 23:22:33 10° W 23:25:19 24° SSW 23:26:17 21° S visible
30 May -2.8 22:32:53 10° W 22:35:56 33° SSW 22:38:26 14° SE visible
31 May -1.5 23:20:56 10° WSW 23:22:34 13° SW 23:23:24 12° SSW visible
01 Jun -1.9 22:30:49 10° W 22:33:14 19° SW 22:35:36 10° S visible
